Tracking 19817 objects as of 17-Aug-2019
HD Live streaming from Space Station
objects crossing your sky now

SURCAL 159

Track SURCAL 159 now!
10-day predictions
SURCAL 159 is classified as:


NORAD ID: 2872
Int'l Code: 1967-053F
Perigee: 901.6 km
Apogee: 908.6 km
Inclination: 70.0 °
Period: 102.9 minutes
Semi major axis: 7276 km
RCS: 0.3624 m2 (medium)
Launch date: May 31, 1967
Source: United States (US)
Launch site: AIR FORCE WESTERN TEST RANGE (AFWTR)
aabbcc
Your satellite tracking list
Your tracking list is empty




NASA's NSSDC Master Catalog

Two Line Element Set (TLE):
1  2872U 67053F   19228.72681612 -.00000021 +00000-0 +22793-4 0  9996
2  2872 069.9764 331.8015 0004771 148.7937 211.3454 13.98796053661027
Source of the keplerian elements: AFSPC